Showing default

EAGLESAT 1, 43018

Orbit data source: Space-Track

EAGLESAT 1, 43018 is a payload satellite owned by Embry-Riddle (US) in SSO that was launched on Sat, 18 Nov 2017 UTC via a DELTA 7920-10C launch vehicle from the Air Force Western Test Range (AFWTR). Payload-class satellites include a variety of spacecraft equipped with specific instruments for various scientific and technological missions. These include communications satellites like Starlink; space stations such as the ISS; scientific satellites like the Hubble; Earth observation satellites from companies like Planet Labs, Umbra, and HawkEye 360; GPS; miniature CubeSats for education and research; and military/defense satellites.

Not visible in the next 10 days
Identifier
43018, 2017-073F
Orbit
SSO
Country
Flag of USUS
Related business
Manufacturer
Embry-Riddle
Mission
Non-operational Amateur Technology
Bus & Motor
CUBESAT 1U, Unknown motor
Mass
1 kg wet, 1 kg dry
Launch date (UTC)
2017-11-18 (8 years ago)
Launch vehicle
DELTA 7920-10C
Launch site
Air Force Western Test Range (AFWTR)
Object type
Payload
Rocket body
Debris
Shape & HBR
Box, 0.1 m
Radar Cross Section
0.015 m², Small (<0.1 m²)

Expand to show TLE details & history
Last TLE update: 6 hours ago

TLE from 6 hours ago
0 EAGLESAT 1
1 43018U 17073F   25311.25947172  .01170154  69912-3  23912-2 0  9991
2 43018  97.5011 213.8304 0018712 236.5874 123.3615 15.99222387433982
Epoch: 2025-11-07T06:13Z
TLE epoch observation values (Epoch: 2025-11-07T06:13:38.356Z)
Latitude
0.00006°
Longitude
73.71457°
Altitude
286.635 km
Speed
7.732 km/s
True Right ascension
14h 15m 19s
True Declination
0° 00' 00"
Sunlit
Object was in daylight at epoch
Visualization orbit readout
Latitude
Unknown
Longitude
Unknown
Altitude
Unknown
Speed
Unknown
Apparent Right ascension
Unknown
Apparent Declination
Unknown
Sunlit
N/A
Visualization observer readout
Local Sidereal Time
08:23:34
Azimuth
Unknown
Elevation
Unknown
Doppler factor
Unknown
Orbital elements
Apogee altitude
285.887 km
Perigee altitude
260.994 km
Semi-major axis
6,651.577 km
Eccentricity
0.00187
Inclination
97.5011°
RAAN
213.8304°
Arg. of periapsis
236.5874°
True anomaly
123.54036°
Mean anomaly
123.3615°
Eccentric anomaly
123.45095°
Mean motion
4.00089 °/min
Orbital period
89.98 mins
BSTAR
0.0023912
Loading maneuver chart data...
Computing Atmospheric mass density...
Loading historical data...
Loading historical data...
Loading historical data...
Loading historical data...
Loading historical data...
Loading historical data...
Loading historical data...
Other satellites on launch #73 in the year 2017 (2017-11-18 UTC)

Documentation

Showing up to 5 results
|